Record,Date/Time,10,Tamb(K),Rh(%),Pres(mb),Tir(K),Rain,Az(deg),El(deg),TkBB(K), Ch  22.234, Ch  23.034, Ch  23.834, Ch  26.234, Ch  30.000, Ch  51.248, Ch  52.280, Ch  53.848, Ch  54.940, Ch  56.660, Ch  57.288, Ch  58.800, Ch 
Record,Date/Time,40,Tamb(K),Rh(%),Pres(mb),Tir(K),Rain
Record,Date/Time,50,Az(deg),El(deg),TkBB(K), Ch  22.000, Ch  22.234, Ch  22.500, Ch  23.000, Ch  23.034, Ch  23.500, Ch  23.834, Ch  24.000, Ch  24.500, Ch  25.000, Ch  25.500, Ch  26.000, Ch  26.234, Ch  26.500, Ch  27.000, Ch  27.500, Ch  28.000, Ch  28.500, Ch  29.000, Ch  29.500, Ch  30.000, Ch  51.248, Ch  51.760, Ch  52.280, Ch  52.804, Ch  53.336, Ch  53.848, Ch  54.400, Ch  54.940, Ch  55.500, Ch  56.020, Ch  56.660, Ch  57.288, Ch  57.964, Ch  58.800, Ch 
Record,Date/Time,80,ID,SNR,Tamb(K),Rh(%),Pres(mb),Tir(K),Rain,Az(deg),El(deg),TkBB(K), Ch  22.234, Ch  23.034, Ch  23.834, Ch  26.234, Ch  30.000, Ch  51.248, Ch  52.280, Ch  53.848, Ch  54.940, Ch  56.660, Ch  57.288, Ch  58.800, Ch 
     1,03/01/19 00:04:41,41, 285.6750,  73.2200,1019.0440, 230.6600,0
     2,03/01/19 00:05:24,51,  0.00, 19.80,299.034, 85.421, 88.275, 88.656, 85.841, 84.779, 80.298, 75.169, 73.836, 67.871, 60.744, 57.128, 53.946, 53.334, 52.015, 51.583, 49.269, 47.615, 48.262, 48.803, 48.803, 50.703,218.292,235.446,253.150,268.161,277.651,281.446,282.242,283.517,283.925,283.380,283.822,282.592,283.996,284.216,
     3,03/01/19 00:05:47,51,  0.00, 90.00,299.041, 33.257, 34.164, 33.885, 33.058, 32.835, 31.068, 28.293, 28.298, 26.203, 23.171, 20.974, 20.623, 21.384, 20.803, 21.531, 19.413, 18.844, 19.967, 20.779, 20.917, 21.916,113.707,130.383,154.287,184.236,219.056,250.512,270.827,279.004,281.195,280.579,281.697,279.534,281.577,281.847,
     4,03/01/19 00:06:09,51,  0.00,160.20,299.063, 81.347, 84.285, 84.413, 81.497, 81.100, 76.089, 71.102, 69.961, 63.863, 58.096, 53.673, 50.977, 51.256, 49.464, 49.001, 46.659, 45.456, 45.763, 46.067, 46.389, 48.101,211.898,229.802,248.830,265.812,276.627,281.163,282.826,283.580,283.381,283.179,283.636,282.983,283.833,283.702,
     5,03/01/19 00:07:39,41, 285.5070,  72.5100,1019.0980, 234.3000,0
     6,03/01/19 00:08:24,51,  0.00, 19.80,299.015, 85.160, 87.863, 88.202, 84.922, 84.130, 79.194, 74.226, 73.119, 66.691, 60.069, 56.344, 52.939, 52.655, 51.272, 50.531, 48.362, 46.831, 47.499, 47.560, 48.313, 49.594,218.192,235.313,252.748,268.724,278.022,281.603,283.414,283.700,284.435,283.411,283.967,282.835,284.909,284.648,
     7,03/01/19 00:08:46,51,  0.00, 90.00,299.028, 33.722, 34.281, 34.623, 33.445, 33.573, 30.969, 28.594, 28.775, 26.437, 23.103, 21.554, 21.830, 21.444, 20.682, 21.433, 19.705, 19.037, 20.663, 21.071, 20.961, 21.690,114.490,131.451,154.904,185.011,219.257,250.987,272.420,279.070,281.688,281.014,281.668,279.120,282.087,282.154,
     8,03/01/19 00:09:08,51,  0.00,160.20,299.051, 83.043, 85.394, 85.888, 82.515, 82.538, 77.174, 72.419, 71.333, 64.813, 59.016, 54.718, 52.328, 51.728, 50.101, 49.865, 47.590, 46.236, 46.806, 46.923, 47.245, 48.635,212.940,230.306,249.273,266.438,276.873,281.471,284.036,283.773,284.276,283.737,284.318,282.901,284.796,284.660,
     9,03/01/19 00:10:38,41, 285.5500,  70.8500,1019.1100, 241.9200,0
    10,03/01/19 00:11:23,51,  0.00, 19.80,299.019, 85.003, 88.069, 88.293, 85.138, 84.536, 79.625, 74.210, 73.001, 67.003, 60.070, 56.071, 52.731, 52.894, 51.139, 50.462, 48.293, 46.845, 47.565, 47.660, 47.854, 49.322,217.815,235.325,253.180,268.629,277.979,281.446,282.590,283.043,283.179,283.064,284.144,282.706,284.024,284.317,
    11,03/01/19 00:11:45,51,  0.00, 90.00,299.049, 33.292, 33.819, 34.276, 33.049, 32.778, 30.886, 28.143, 28.493, 26.321, 23.135, 21.356, 21.671, 21.964, 21.153, 20.882, 19.079, 19.059, 20.647, 20.938, 21.278, 22.011,114.862,131.740,155.132,185.098,219.870,250.993,271.545,278.747,281.454,280.207,281.601,278.984,281.668,281.900,
    12,03/01/19 00:12:07,51,  0.00,160.20,299.054, 83.177, 85.964, 86.188, 83.021, 82.891, 77.861, 72.896, 71.987, 65.783, 59.766, 54.837, 52.718, 52.917, 51.140, 50.561, 48.015, 47.420, 47.848, 48.328, 48.626, 50.062,213.232,230.784,249.439,266.498,277.255,281.369,282.939,283.185,283.761,282.778,284.143,283.182,284.408,284.188,
    13,03/01/19 00:13:37,41, 285.4520,  70.5500,1019.0700, 240.8200,0
    14,03/01/19 00:14:22,51,  0.00, 19.80,299.024, 85.724, 88.886, 89.018, 85.572, 85.276, 80.144, 75.231, 73.912, 67.621, 60.871, 57.315, 54.305, 53.807, 52.032, 51.725, 49.622, 47.973, 49.120, 49.169, 49.714, 50.816,218.759,235.630,253.578,268.722,277.871,281.503,282.644,283.217,283.971,283.742,284.270,283.241,284.520,284.322,
    15,03/01/19 00:14:44,51,  0.00, 90.00,299.005, 33.758, 34.429, 34.299, 33.111, 32.903, 30.708, 28.199, 28.251, 26.127, 23.154, 21.380, 21.247, 21.660, 20.729, 20.813, 19.207, 19.141, 20.188, 21.329, 21.177, 22.201,114.033,130.917,154.451,184.652,219.151,251.077,271.409,279.098,281.222,280.394,281.299,279.209,281.828,282.123,
    16,03/01/19 00:15:06,51,  0.00,160.20,298.981, 82.176, 85.136, 84.695, 82.108, 81.269, 76.384, 71.475, 70.063, 64.026, 58.395, 53.991, 51.520, 51.384, 49.557, 49.095, 46.858, 45.658, 46.288, 46.870, 46.992, 47.943,212.355,230.037,249.501,266.218,276.947,281.262,282.941,283.619,283.992,283.289,283.838,282.840,284.440,284.217,
    17,03/01/19 00:16:36,41, 285.2570,  70.3100,1019.0080, 240.7700,0
    18,03/01/19 00:17:20,51,  0.00, 19.80,298.904, 86.641, 89.449, 89.797, 86.377, 86.286, 81.445, 76.543, 75.296, 69.153, 62.488, 58.590, 56.196, 55.788, 54.375, 53.701, 51.393, 49.905, 50.991, 51.143, 52.113, 53.505,219.862,236.767,253.933,268.841,277.611,281.186,283.046,283.867,284.005,283.464,284.661,283.099,284.465,284.609,
    19,03/01/19 00:17:43,51,  0.00, 90.00,298.894, 33.020, 33.711, 33.621, 32.589, 32.394, 30.573, 27.934, 28.317, 26.250, 22.822, 20.549, 21.223, 21.437, 20.788, 20.999, 18.794, 18.620, 20.283, 21.223, 21.141, 22.316,114.396,131.741,154.980,185.253,218.806,250.441,272.073,279.776,281.297,280.685,282.050,279.363,282.066,281.928,
    20,03/01/19 00:18:05,51,  0.00,160.20,298.905, 81.065, 83.949, 83.950, 80.631, 80.879, 75.590, 70.933, 69.637, 63.898, 57.566, 52.898, 51.032, 50.728, 49.255, 48.805, 46.232, 45.085, 45.676, 46.305, 46.523, 47.994,212.530,230.402,249.136,266.229,276.536,281.278,283.045,283.596,283.836,283.447,284.196,282.863,283.816,284.195,
    21,03/01/19 00:19:35,41, 285.2450,  69.7800,1018.9780, 240.6200,0
    22,03/01/19 00:20:20,51,  0.00, 19.80,298.816, 86.166, 89.486, 89.807, 86.457, 86.144, 81.193, 76.250, 75.017, 68.886, 62.516, 58.852, 55.496, 55.745, 54.035, 53.284, 51.383, 49.974, 50.707, 50.942, 51.487, 52.532,219.827,236.699,253.857,269.293,277.709,281.362,283.292,283.246,284.201,283.704,284.076,283.275,283.867,284.951,
    23,03/01/19 00:20:42,51,  0.00, 90.00,298.816, 32.710, 33.383, 33.750, 32.299, 32.343, 30.450, 27.614, 27.913, 25.621, 22.854, 21.116, 21.038, 21.239, 20.337, 20.325, 19.111, 18.550, 20.168, 20.923, 21.702, 21.102,113.901,130.535,154.344,184.832,219.579,250.969,271.921,279.210,281.806,281.231,281.869,279.088,281.378,281.986,
    24,03/01/19 00:21:04,51,  0.00,160.20,298.820, 80.945, 84.000, 84.212, 81.015, 81.178, 75.728, 70.606, 69.700, 63.697, 58.053, 54.126, 51.450, 51.244, 49.746, 49.247, 46.915, 46.244, 46.204, 47.389, 47.623, 48.723,213.035,230.464,249.740,266.710,276.725,281.474,283.557,283.820,284.328,284.040,284.166,283.275,283.947,284.744,
    25,03/01/19 00:22:34,41, 285.2840,  70.7800,1019.0000, 240.9400,0
    26,03/01/19 00:23:19,51,  0.00, 19.80,298.793, 85.626, 88.052, 88.532, 85.319, 85.626, 80.675, 75.405, 73.863, 68.378, 61.146, 57.793, 54.714, 54.642, 53.010, 52.739, 50.794, 48.871, 49.671, 49.585, 50.197, 51.071,219.402,235.951,253.395,268.981,277.863,281.903,282.867,283.665,284.492,282.946,283.984,282.862,284.206,284.419,
    27,03/01/19 00:23:41,51,  0.00, 90.00,298.754, 32.940, 33.050, 32.987, 31.994, 32.333, 30.433, 27.806, 27.541, 25.761, 22.215, 20.463, 20.334, 21.413, 20.138, 20.375, 19.203, 18.303, 19.830, 20.286, 20.827, 20.557,114.008,130.913,154.243,184.615,219.132,251.015,272.006,279.108,281.585,280.320,281.551,279.100,282.038,282.353,
    28,03/01/19 00:24:03,51,  0.00,160.20,298.732, 81.665, 84.184, 83.848, 80.978, 81.081, 76.224, 71.112, 69.745, 64.202, 57.566, 53.673, 51.048, 51.096, 49.228, 49.191, 47.273, 45.860, 46.263, 46.544, 47.189, 47.510,212.954,230.347,249.076,266.067,276.680,281.577,283.285,284.140,284.200,283.420,283.987,283.098,284.323,284.542,
    29,03/01/19 00:25:34,41, 285.1870,  70.8200,1019.0560, 244.9400,0
    30,03/01/19 00:26:18,51,  0.00, 19.80,298.595, 85.679, 88.203, 88.658, 85.652, 85.830, 80.798, 75.746, 74.372, 68.107, 61.539, 58.296, 55.535, 55.068, 53.699, 52.964, 51.006, 49.541, 50.309, 50.779, 50.803, 52.330,219.585,236.026,254.262,269.344,277.913,281.483,282.974,283.424,284.282,283.510,283.771,282.717,284.590,284.455,
    31,03/01/19 00:26:41,51,  0.00, 90.00,298.568, 33.018, 33.112, 33.607, 32.890, 32.719, 30.822, 28.187, 28.024, 26.111, 22.906, 21.657, 21.727, 21.938, 20.809, 21.101, 19.520, 19.119, 20.534, 21.308, 21.452, 22.812,115.204,131.528,155.589,185.509,219.495,251.203,271.294,279.213,281.373,281.330,281.727,279.049,281.993,282.235,
    32,03/01/19 00:27:03,51,  0.00,160.20,298.576, 81.889, 84.218, 84.551, 81.774, 81.672, 76.380, 71.621, 70.225, 64.860, 58.378, 54.191, 52.272, 51.770, 50.289, 49.824, 47.766, 46.669, 47.386, 48.075, 48.580, 49.514,213.644,230.676,250.114,266.360,276.892,281.117,282.602,283.710,284.087,283.709,284.020,282.651,284.604,284.684,
    33,03/01/19 00:28:33,41, 285.1590,  71.8300,1019.0200, 250.5400,0
    34,03/01/19 00:29:18,51,  0.00, 19.80,298.471, 85.950, 88.652, 89.731, 86.132, 85.863, 81.344, 76.253, 75.131, 68.900, 62.610, 58.863, 56.406, 56.304, 54.289, 53.721, 52.147, 50.697, 50.969, 51.330, 52.107, 53.669,220.181,236.290,253.951,268.750,277.646,281.669,282.405,283.198,284.209,283.758,284.167,283.122,284.723,283.812,
    35,03/01/19 00:29:40,51,  0.00, 90.00,298.469, 33.138, 33.657, 34.249, 33.002, 32.405, 31.266, 28.442, 28.360, 26.379, 23.435, 21.669, 21.558, 22.395, 20.839, 21.342, 20.118, 19.897, 20.833, 21.457, 21.845, 22.266,115.403,131.788,155.331,185.440,219.112,250.922,271.475,279.458,281.887,280.629,281.943,279.709,282.002,282.149,
    36,03/01/19 00:30:02,51,  0.00,160.20,298.469, 81.457, 83.755, 84.825, 81.330, 80.890, 76.076, 71.086, 69.919, 64.038, 58.570, 53.640, 51.675, 51.930, 49.939, 49.822, 47.763, 46.507, 46.822, 47.204, 47.340, 48.798,213.218,230.118,249.370,266.194,276.311,281.022,282.805,283.561,284.329,284.123,283.774,283.150,284.516,284.295,
    37,03/01/19 00:31:32,41, 285.0190,  71.7700,1018.8960, 247.3100,0
    38,03/01/19 00:32:17,51,  0.00, 19.80,298.376, 86.445, 88.967, 89.956, 86.864, 86.130, 81.412, 76.932, 75.945, 69.983, 63.239, 59.677, 56.779, 56.519, 55.373, 54.522, 52.808, 51.258, 52.013, 52.228, 52.543, 54.167,220.013,237.149,254.190,268.344,277.763,281.334,282.423,283.516,284.355,283.789,284.175,283.200,284.088,284.818,
    39,03/01/19 00:32:39,51,  0.00, 90.00,298.361, 33.114, 33.118, 33.772, 32.440, 32.745, 30.472, 28.550, 28.642, 26.263, 23.114, 21.433, 21.139, 21.839, 20.973, 21.059, 19.546, 19.488, 20.482, 21.418, 20.809, 22.189,114.638,132.173,154.974,184.692,219.742,250.998,271.780,279.299,281.430,281.033,282.124,279.495,281.915,282.397,
    40,03/01/19 00:33:02,51,  0.00,160.20,298.377, 81.628, 83.963, 84.498, 81.580, 81.420, 76.001, 71.562, 70.871, 64.727, 58.758, 54.911, 52.252, 52.000, 50.739, 49.855, 48.529, 47.049, 47.308, 47.900, 47.836, 50.161,213.044,231.374,249.548,265.948,276.549,280.770,282.512,283.394,284.366,283.474,284.281,282.732,283.952,284.320,
    41,03/01/19 00:34:31,41, 285.1870,  72.8400,1018.8660, 253.8900,0
    42,03/01/19 00:35:16,51,  0.00, 19.80,298.312, 85.720, 88.539, 89.189, 85.848, 85.545, 80.755, 75.696, 74.574, 68.509, 62.551, 59.049, 56.391, 55.941, 54.573, 53.777, 51.849, 50.086, 51.138, 51.249, 51.939, 52.963,219.594,236.698,254.254,268.671,277.537,281.656,282.883,283.751,284.016,283.298,283.762,282.434,284.095,284.771,
    43,03/01/19 00:35:38,51,  0.00, 90.00,298.326, 33.069, 33.667, 34.284, 33.145, 33.127, 30.885, 28.453, 28.457, 26.470, 23.438, 22.216, 21.696, 22.189, 21.289, 21.549, 20.267, 19.345, 20.958, 21.934, 21.882, 22.329,115.342,132.166,155.896,185.473,219.838,251.366,272.065,279.758,281.423,280.714,281.233,279.084,281.823,282.242,
    44,03/01/19 00:36:00,51,  0.00,160.20,298.314, 82.156, 84.726, 85.261, 82.001, 81.882, 76.739, 72.175, 71.216, 64.988, 59.526, 55.639, 53.103, 53.038, 51.330, 51.257, 48.848, 47.443, 48.193, 48.926, 49.029, 50.390,213.734,231.037,250.336,266.549,276.833,281.734,283.049,283.934,283.693,283.418,283.573,282.216,284.556,284.362,
    45,03/01/19 00:37:31,41, 285.0770,  72.1000,1019.0000, 263.9600,0
    46,03/01/19 00:38:15,51,  0.00, 19.80,298.263, 85.836, 88.560, 89.251, 86.218, 85.872, 80.959, 76.012, 75.029, 69.145, 62.718, 59.584, 56.271, 56.462, 54.610, 53.669, 52.012, 50.644, 51.541, 51.585, 51.812, 53.470,220.194,236.353,253.655,268.619,277.460,281.472,282.061,283.382,283.968,283.645,284.232,282.390,284.617,284.591,
    47,03/01/19 00:38:38,51,  0.00, 90.00,298.269, 32.788, 33.813, 33.816, 32.871, 33.009, 30.759, 27.949, 28.044, 26.293, 23.644, 21.847, 21.784, 22.552, 21.156, 21.135, 20.006, 19.752, 20.897, 21.724, 21.793, 22.757,115.766,132.000,155.404,185.105,219.598,250.986,271.512,278.888,281.359,280.438,282.058,279.095,282.159,280.801,
    48,03/01/19 00:39:00,51,  0.00,160.20,298.231, 83.189, 86.171, 86.366, 83.388, 83.067, 77.906, 73.194, 72.064, 66.090, 60.497, 56.636, 54.220, 54.252, 52.568, 51.874, 49.937, 49.248, 49.587, 50.332, 50.178, 51.944,215.026,231.399,250.040,266.404,276.580,281.407,282.769,283.388,283.751,283.215,283.918,282.418,284.324,283.615,
    49,03/01/19 00:40:30,41, 285.0500,  71.9200,1018.9940, 264.7900,0
    50,03/01/19 00:41:15,51,  0.00, 19.80,298.231, 84.290, 86.977, 87.819, 84.631, 85.067, 79.261, 74.666, 73.376, 67.611, 61.341, 57.673, 54.540, 54.102, 53.062, 52.475, 50.537, 49.257, 49.952, 49.907, 50.598, 51.745,219.214,235.468,253.373,268.747,277.576,281.844,282.754,283.834,284.521,283.997,284.481,283.105,284.835,285.056,
    51,03/01/19 00:41:38,51,  0.00, 90.00,298.226, 32.525, 32.880, 33.740, 32.683, 32.530, 30.358, 28.318, 28.105, 26.723, 23.490, 22.210, 21.719, 21.776, 20.891, 21.463, 20.021, 19.688, 20.739, 21.633, 21.943, 21.897,115.192,132.121,155.338,185.597,219.643,251.163,271.548,279.035,281.640,281.097,281.438,279.364,281.981,281.910,
    52,03/01/19 00:42:00,51,  0.00,160.20,298.235, 83.336, 85.303, 86.173, 82.884, 83.489, 77.809, 73.248, 71.965, 66.581, 60.615, 56.780, 54.012, 53.992, 52.424, 52.348, 50.194, 48.995, 49.529, 50.434, 50.298, 51.534,214.627,231.407,250.053,266.560,276.391,280.969,282.773,283.321,284.322,283.512,283.929,283.077,284.478,284.349,
    53,03/01/19 00:43:31,41, 285.0620,  72.3500,1018.9500, 270.7200,0
    54,03/01/19 00:44:15,51,  0.00, 19.80,298.157, 83.869, 86.765, 87.567, 84.289, 84.070, 78.871, 74.090, 72.895, 67.016, 60.439, 56.769, 53.840, 53.519, 52.100, 51.457, 49.616, 47.848, 48.663, 48.893, 49.308, 50.591,218.942,235.769,253.418,268.175,278.102,281.538,282.973,283.436,283.969,283.182,284.239,282.323,284.605,284.690,
    55,03/01/19 00:44:37,51,  0.00, 90.00,298.171, 33.498, 34.327, 34.629, 33.732, 33.840, 31.328, 29.091, 28.961, 26.963, 24.741, 21.972, 22.274, 22.401, 22.001, 22.162, 20.876, 20.092, 21.628, 22.459, 22.638, 23.821,116.388,133.129,156.181,185.575,220.206,251.429,271.981,279.682,281.198,280.473,281.971,278.702,281.805,281.948,
    56,03/01/19 00:44:59,51,  0.00,160.20,298.190, 83.266, 86.209, 86.518, 83.589, 83.323, 77.978, 73.471, 72.159, 66.531, 61.183, 56.494, 54.450, 54.071, 52.834, 52.442, 50.192, 48.892, 49.458, 50.693, 50.101, 51.599,215.251,231.907,250.310,266.551,277.012,281.747,283.419,284.007,283.862,283.228,284.133,282.677,284.344,284.857,
    57,03/01/19 00:46:30,41, 285.1050,  73.4200,1018.9460, 261.0900,0
    58,03/01/19 00:47:15,51,  0.00, 19.80,298.129, 84.153, 87.094, 87.659, 84.016, 84.418, 79.551, 74.531, 73.293, 67.408, 60.325, 57.192, 54.134, 53.724, 52.400, 51.600, 49.707, 47.804, 48.856, 49.149, 49.392, 50.528,218.759,235.468,253.892,268.627,277.938,281.600,283.222,283.603,284.146,283.207,283.941,282.820,284.379,285.390,
    59,03/01/19 00:47:37,51,  0.00, 90.00,298.135, 33.008, 33.417, 33.960, 32.590, 33.044, 30.788, 28.073, 28.384, 26.284, 23.129, 21.646, 22.138, 21.951, 21.014, 21.638, 20.055, 19.142, 21.022, 22.242, 21.258, 21.972,115.049,131.606,155.591,185.301,220.162,251.278,272.048,279.489,281.470,280.481,281.487,279.005,281.884,282.467,
    60,03/01/19 00:47:59,51,  0.00,160.20,298.111, 82.422, 84.939, 85.634, 82.076, 82.355, 77.603, 72.867, 71.452, 65.799, 59.778, 55.863, 53.603, 53.239, 51.989, 51.691, 49.676, 48.158, 48.675, 49.929, 48.879, 50.748,213.939,231.165,250.064,266.424,277.024,281.145,283.385,283.268,283.859,283.326,284.092,282.511,284.529,284.896,
    61,03/01/19 00:49:29,41, 285.0770,  72.9400,1018.9100, 257.0900,0
    62,03/01/19 00:50:14,51,  0.00, 19.80,298.101, 84.799, 87.824, 88.319, 85.060, 84.778, 79.990, 74.435, 73.778, 67.997, 61.235, 58.056, 54.980, 54.864, 53.301, 52.378, 50.784, 49.361, 50.158, 50.073, 50.888, 51.635,219.978,236.382,254.011,268.908,277.767,281.342,282.946,282.904,284.003,283.199,284.275,283.187,283.660,284.917,
    63,03/01/19 00:50:36,51,  0.00, 90.00,298.139, 32.561, 33.599, 33.734, 32.919, 32.864, 30.818, 27.981, 28.072, 26.024, 22.972, 21.707, 21.581, 22.045, 21.067, 21.229, 19.876, 19.247, 20.656, 21.250, 21.584, 22.497,115.684,132.436,155.633,185.139,219.510,250.769,272.098,279.077,281.697,280.369,282.177,279.011,281.324,282.258,
    64,03/01/19 00:50:59,51,  0.00,160.20,298.119, 81.842, 84.820, 85.183, 82.171, 82.258, 77.145, 71.890, 70.701, 65.721, 59.290, 55.728, 53.143, 53.451, 51.632, 51.158, 48.985, 48.394, 48.589, 49.285, 49.333, 50.905,214.365,231.380,250.130,266.386,277.082,281.308,283.296,283.172,284.480,283.499,284.302,282.977,283.939,284.818,
    65,03/01/19 00:52:29,41, 285.0620,  72.1800,1019.1640, 261.7600,0
    66,03/01/19 00:53:13,51,  0.00, 19.80,298.058, 85.864, 88.775, 89.199, 86.240, 85.718, 80.839, 75.629, 74.481, 68.516, 61.892, 58.833, 55.553, 55.273, 54.017, 53.350, 51.141, 49.599, 50.606, 51.091, 51.452, 52.308,220.567,236.798,253.788,268.840,277.796,281.701,282.904,283.545,284.198,283.344,283.822,282.707,284.139,283.895,
    67,03/01/19 00:53:36,51,  0.00, 90.00,298.129, 33.151, 33.859, 34.006, 33.217, 32.892, 30.470, 28.138, 28.387, 26.246, 23.344, 21.825, 21.751, 21.836, 21.265, 21.420, 19.986, 19.458, 20.765, 21.876, 21.547, 21.862,115.757,132.063,155.086,185.474,219.675,250.920,271.661,279.146,281.403,280.485,281.485,279.089,281.852,282.049,
    68,03/01/19 00:53:58,51,  0.00,160.20,298.099, 82.752, 85.823, 85.902, 83.295, 82.710, 77.436, 72.921, 71.886, 66.309, 60.680, 56.665, 53.872, 53.941, 52.451, 52.163, 49.729, 48.749, 49.492, 50.365, 50.367, 51.311,215.374,231.823,250.229,266.560,276.730,281.305,282.883,283.435,283.819,283.442,283.851,283.124,283.911,284.301,
    69,03/01/19 00:55:28,41, 285.2450,  73.2900,1019.2460, 262.6000,0
    70,03/01/19 00:56:13,51,  0.00, 19.80,298.096, 85.397, 88.151, 88.530, 85.012, 85.192, 80.578, 75.607, 74.003, 68.177, 61.605, 57.355, 54.387, 54.038, 53.017, 51.730, 49.513, 47.983, 49.145, 48.879, 49.870, 50.956,219.461,235.595,253.396,268.480,277.867,281.054,283.106,283.369,284.211,283.044,283.892,283.461,283.966,283.368,
    71,03/01/19 00:56:35,51,  0.00, 90.00,298.079, 33.297, 33.925, 33.893, 33.261, 33.210, 31.588, 28.484, 28.668, 26.386, 24.138, 22.007, 21.625, 21.986, 21.222, 21.483, 19.565, 19.278, 20.660, 21.194, 21.421, 21.728,115.338,131.922,155.506,185.560,220.057,250.566,271.915,278.878,281.396,280.529,281.881,279.538,281.851,280.925,
    72,03/01/19 00:56:57,51,  0.00,160.20,298.111, 84.417, 86.759, 87.141, 84.093, 84.294, 79.756, 74.529, 73.252, 67.614, 61.973, 57.513, 55.769, 55.233, 53.928, 53.174, 51.111, 50.305, 51.011, 51.363, 51.584, 53.012,215.927,232.302,250.796,266.643,277.281,280.912,283.075,283.196,284.351,283.325,283.838,282.915,284.353,283.324,
    73,03/01/19 00:58:27,41, 285.0770,  72.7300,1019.1440, 260.6900,0
    74,03/01/19 00:59:12,51,  0.00, 19.80,298.067, 85.320, 87.831, 88.200, 84.717, 84.441, 79.723, 74.651, 73.236, 67.466, 60.880, 57.341, 54.579, 53.777, 52.496, 51.839, 49.715, 47.989, 48.680, 48.896, 48.627, 50.794,219.241,235.693,253.228,268.606,277.977,281.378,282.355,283.364,284.037,283.527,284.378,283.337,284.620,284.166,
    75,03/01/19 00:59:34,51,  0.00, 90.00,298.095, 33.116, 33.382, 33.571, 32.505, 32.470, 30.704, 28.101, 27.919, 26.122, 23.408, 21.323, 21.529, 21.674, 20.777, 21.199, 19.520, 19.022, 20.522, 20.888, 20.994, 22.151,114.629,131.610,154.842,184.818,219.533,251.265,271.567,279.282,280.810,280.457,281.750,279.431,282.007,281.599,
    76,03/01/19 00:59:57,51,  0.00,160.20,298.079, 84.187, 87.060, 87.036, 84.082, 84.065, 78.808, 74.111, 72.714, 67.160, 61.697, 57.341, 55.359, 55.166, 53.941, 53.752, 51.839, 50.469, 51.167, 51.603, 52.051, 53.947,215.805,232.387,250.792,266.694,276.802,281.217,282.901,283.274,283.631,283.398,283.854,283.558,284.604,284.586,
    77,03/01/19 01:01:27,41, 284.9910,  72.7000,1019.0280, 257.4100,0
    78,03/01/19 01:02:12,51,  0.00, 19.80,298.062, 84.822, 87.579, 88.207, 85.156, 84.922, 79.528, 74.539, 73.999, 67.359, 60.640, 57.380, 54.414, 54.005, 52.154, 51.536, 49.789, 48.472, 49.097, 49.000, 49.579, 50.943,219.549,236.079,253.663,268.340,277.301,281.414,282.618,283.375,284.143,283.408,284.138,282.770,284.274,284.768,
    79,03/01/19 01:02:34,51,  0.00, 90.00,298.091, 32.798, 33.558, 33.755, 32.760, 33.127, 30.631, 27.875, 28.370, 25.838, 23.107, 21.797, 21.417, 21.487, 20.422, 21.105, 19.458, 19.098, 20.509, 21.218, 21.197, 22.096,114.877,131.347,154.855,184.626,219.142,250.769,271.499,278.952,281.382,280.730,281.795,279.047,281.919,281.654,
    80,03/01/19 01:02:56,51,  0.00,160.20,298.069, 82.413, 85.162, 85.285, 82.605, 82.653, 77.297, 72.531, 71.913, 65.995, 60.414, 56.440, 54.216, 54.107, 52.180, 52.165, 50.278, 49.086, 49.723, 50.525, 50.378, 52.074,215.521,232.261,250.980,266.871,276.556,281.237,283.025,283.389,284.204,283.283,284.217,283.002,284.359,284.393,
    81,03/01/19 01:04:26,41, 285.0190,  73.5200,1018.9980, 248.1900,0
    82,03/01/19 01:05:11,51,  0.00, 19.80,297.994, 84.978, 87.828, 88.621, 85.037, 84.555, 79.599, 74.719, 73.422, 67.376, 60.966, 56.932, 54.260, 54.061, 52.408, 51.628, 49.127, 48.034, 48.711, 49.025, 49.456, 50.705,219.040,236.202,253.704,268.568,277.604,281.911,283.024,284.056,283.414,283.389,284.305,282.454,284.420,284.240,
    83,03/01/19 01:05:33,51,  0.00, 90.00,298.022, 32.528, 33.461, 33.774, 32.340, 32.313, 30.298, 27.643, 27.702, 26.080, 22.692, 20.673, 21.052, 21.454, 20.459, 20.602, 19.110, 19.012, 19.973, 20.477, 20.965, 21.416,113.985,131.110,154.550,184.386,219.137,250.851,271.481,279.481,280.977,280.600,281.438,278.991,281.820,281.449,
    84,03/01/19 01:05:55,51,  0.00,160.20,297.986, 82.584, 85.456, 85.640, 82.711, 82.596, 77.369, 72.798, 71.380, 65.769, 60.140, 55.887, 53.679, 53.592, 51.952, 51.528, 49.178, 48.323, 48.885, 49.678, 49.731, 51.261,214.899,231.868,250.244,266.209,276.764,281.213,282.921,283.986,283.849,283.512,284.177,282.418,284.323,283.348,
    85,03/01/19 01:07:26,41, 284.9520,  73.8200,1019.0200, 262.2900,0
    86,03/01/19 01:08:10,51,  0.00, 19.80,297.899, 84.988, 88.048, 88.181, 84.867, 84.527, 80.047, 75.188, 73.519, 67.660, 61.191, 57.787, 54.778, 54.178, 52.800, 52.452, 49.865, 48.423, 48.967, 49.574, 49.374, 51.117,219.404,235.829,253.588,268.752,277.552,281.355,282.411,283.881,284.251,283.450,283.281,282.893,284.490,284.259,